Location: Austin
(30.3000°N, 97.7500°W)
Time: 07:11:40
(UTC-06:00)

Fermi - Pass Details

Date: 22 November 2025
Orbit: 492 x 503 km, 25.6° (Epoch: 07 December)

Event Time Altitude Azimuth Distance (km) Brightness Sun altitude
Rises 18:43:38 0° 256° (WSW) 2,558 9.1 -15.6°
Reaches altitude 10° 18:47:09 10° 223° (SW) 1,678 7.2 -16.3°
Maximum altitude 18:48:33 12° 202° (SSW) 1,577 6.6 -16.6°
Drops below altitude 10° 18:49:56 10° 181° (S) 1,679 6.5 -16.9°
Enters shadow 18:52:59 - 150° (SSE) 2,406 6.9 -17.5°
